Time,TemperatureF,DewpointF,PressureIn,WindDirection,WindDirectionDegrees,WindSpeedMPH,WindSpeedGustMPH,Humidity,HourlyPrecipIn,Conditions,Clouds,dailyrainin,SoftwareType,DateUTC
2013-08-02 00:02:00,56.0,56.0,-100.00,ENE,73,0.0,3.0,100,0.00,,,0.00,,2013-08-02 05:02:00,
2013-08-02 00:32:00,56.0,56.0,-100.00,ENE,71,0.0,4.0,100,0.00,,,0.00,,2013-08-02 05:32:00,
2013-08-02 00:43:00,56.0,56.0,-100.00,ENE,71,0.0,4.0,100,0.00,,,0.00,,2013-08-02 05:43:00,
2013-08-02 00:53:00,56.0,56.0,-100.00,ENE,71,0.0,4.0,100,0.00,,,0.00,,2013-08-02 05:53:00,
2013-08-02 01:02:00,56.0,56.0,-100.00,ENE,71,0.0,4.0,100,0.00,,,0.00,,2013-08-02 06:02:00,
2013-08-02 01:33:00,55.0,55.0,-100.00,ENE,62,0.0,4.0,100,0.00,,,0.00,,2013-08-02 06:33:00,
2013-08-02 01:43:00,55.0,55.0,-100.00,ENE,62,0.0,4.0,100,0.00,,,0.00,,2013-08-02 06:43:00,
2013-08-02 01:52:00,55.0,55.0,-100.00,ENE,62,0.0,4.0,100,0.00,,,0.00,,2013-08-02 06:52:00,
2013-08-02 02:02:00,55.0,55.0,-100.00,ENE,62,0.0,4.0,100,0.00,,,0.00,,2013-08-02 07:02:00,
2013-08-02 02:33:00,55.0,55.0,-100.00,NE,48,2.0,3.0,100,0.00,,,0.00,,2013-08-02 07:33:00,
2013-08-02 02:44:00,55.0,55.0,-100.00,NE,48,2.0,3.0,100,0.00,,,0.00,,2013-08-02 07:44:00,
2013-08-02 02:53:00,55.0,55.0,-100.00,NE,48,2.0,3.0,100,0.00,,,0.00,,2013-08-02 07:53:00,
2013-08-02 03:02:00,55.0,55.0,-100.00,NE,48,2.0,3.0,100,0.00,,,0.00,,2013-08-02 08:02:00,
2013-08-02 03:33:00,54.0,54.0,-100.00,NE,43,2.0,6.0,100,0.00,,,0.00,,2013-08-02 08:33:00,
2013-08-02 03:43:00,54.0,54.0,-100.00,NE,43,2.0,6.0,100,0.00,,,0.00,,2013-08-02 08:43:00,
2013-08-02 03:54:00,54.0,54.0,-100.00,NE,43,2.0,6.0,100,0.00,,,0.00,,2013-08-02 08:54:00,
2013-08-02 04:02:00,54.0,54.0,-100.00,NE,43,2.0,6.0,100,0.00,,,0.00,,2013-08-02 09:02:00,
2013-08-02 04:33:00,52.0,52.0,-100.00,SSW,195,2.0,3.0,100,0.00,,,0.00,,2013-08-02 09:33:00,
2013-08-02 04:44:00,52.0,52.0,-100.00,SSW,195,2.0,3.0,100,0.00,,,0.00,,2013-08-02 09:44:00,
2013-08-02 04:53:00,52.0,52.0,-100.00,SSW,195,2.0,3.0,100,0.00,,,0.00,,2013-08-02 09:53:00,
2013-08-02 05:03:00,52.0,52.0,-100.00,SSW,195,2.0,3.0,100,0.00,,,0.00,,2013-08-02 10:03:00,
2013-08-02 05:33:00,52.0,52.0,-100.00,NNE,21,0.0,3.0,100,0.00,,,0.00,,2013-08-02 10:33:00,
2013-08-02 05:44:00,52.0,52.0,-100.00,NNE,21,0.0,3.0,100,0.00,,,0.00,,2013-08-02 10:44:00,
2013-08-02 05:52:00,52.0,52.0,-100.00,NNE,21,0.0,3.0,100,0.00,,,0.00,,2013-08-02 10:52:00,
2013-08-02 06:02:00,52.0,52.0,-100.00,NNE,21,0.0,3.0,100,0.00,,,0.00,,2013-08-02 11:02:00,
2013-08-02 06:33:00,51.0,51.0,-100.00,SSW,210,0.0,2.0,100,0.00,,,0.00,,2013-08-02 11:33:00,
2013-08-02 06:43:00,51.0,51.0,-100.00,SSW,210,0.0,2.0,100,0.00,,,0.00,,2013-08-02 11:43:00,
2013-08-02 06:52:00,51.0,51.0,-100.00,SSW,210,0.0,2.0,100,0.00,,,0.00,,2013-08-02 11:52:00,
2013-08-02 07:02:00,51.0,51.0,-100.00,SSW,210,0.0,2.0,100,0.00,,,0.00,,2013-08-02 12:02:00,
2013-08-02 07:33:00,57.0,57.0,-100.00,SSW,194,0.0,11.0,100,0.00,,,0.00,,2013-08-02 12:33:00,
2013-08-02 07:43:00,57.0,57.0,-100.00,SSW,194,0.0,11.0,100,0.00,,,0.00,,2013-08-02 12:43:00,
2013-08-02 07:52:00,57.0,57.0,-100.00,SSW,194,0.0,11.0,100,0.00,,,0.00,,2013-08-02 12:52:00,
2013-08-02 08:02:00,57.0,57.0,-100.00,SSW,194,0.0,11.0,100,0.00,,,0.00,,2013-08-02 13:02:00,
2013-08-02 08:33:00,63.0,62.0,-100.00,SSW,200,2.0,4.0,95,0.00,,,0.00,,2013-08-02 13:33:00,
2013-08-02 08:43:00,63.0,62.0,-100.00,SSW,200,2.0,4.0,95,0.00,,,0.00,,2013-08-02 13:43:00,
2013-08-02 08:52:00,63.0,62.0,-100.00,SSW,200,2.0,4.0,95,0.00,,,0.00,,2013-08-02 13:52:00,
2013-08-02 09:02:00,63.0,62.0,-100.00,SSW,200,2.0,4.0,95,0.00,,,0.00,,2013-08-02 14:02:00,
2013-08-02 09:32:00,68.0,62.0,-100.00,WNW,284,2.0,5.0,82,0.00,,,0.00,,2013-08-02 14:32:00,
2013-08-02 09:43:00,68.0,62.0,-100.00,WNW,284,2.0,5.0,82,0.00,,,0.00,,2013-08-02 14:43:00,
2013-08-02 09:53:00,68.0,62.0,-100.00,WNW,284,2.0,5.0,82,0.00,,,0.00,,2013-08-02 14:53:00,
2013-08-02 10:03:00,68.0,62.0,-100.00,WNW,284,2.0,5.0,82,0.00,,,0.00,,2013-08-02 15:03:00,
2013-08-02 10:32:00,72.0,62.0,-100.00,WNW,283,5.0,10.0,70,0.00,,,0.00,,2013-08-02 15:32:00,
2013-08-02 10:43:00,72.0,62.0,-100.00,WNW,283,5.0,10.0,70,0.00,,,0.00,,2013-08-02 15:43:00,
2013-08-02 10:52:00,72.0,62.0,-100.00,WNW,283,5.0,10.0,70,0.00,,,0.00,,2013-08-02 15:52:00,
2013-08-02 11:02:00,72.0,62.0,-100.00,WNW,283,5.0,10.0,70,0.00,,,0.00,,2013-08-02 16:02:00,
2013-08-02 11:32:00,74.0,58.0,-100.00,NNW,328,9.0,16.0,57,0.00,,,0.00,,2013-08-02 16:32:00,
2013-08-02 11:43:00,74.0,58.0,-100.00,NNW,328,9.0,16.0,57,0.00,,,0.00,,2013-08-02 16:43:00,
2013-08-02 11:53:00,74.0,58.0,-100.00,NNW,328,9.0,16.0,57,0.00,,,0.00,,2013-08-02 16:53:00,
2013-08-02 12:02:00,74.0,58.0,-100.00,NNW,328,9.0,16.0,57,0.00,,,0.00,,2013-08-02 17:02:00,
2013-08-02 12:35:00,75.0,57.0,-100.00,NW,326,10.0,15.0,54,0.00,,,0.00,,2013-08-02 17:35:00,
2013-08-02 12:43:00,75.0,57.0,-100.00,NW,326,10.0,15.0,54,0.00,,,0.00,,2013-08-02 17:43:00,
2013-08-02 12:52:00,75.0,57.0,-100.00,NW,326,10.0,15.0,54,0.00,,,0.00,,2013-08-02 17:52:00,
2013-08-02 13:02:00,75.0,57.0,-100.00,NW,326,10.0,15.0,54,0.00,,,0.00,,2013-08-02 18:02:00,
2013-08-02 13:32:00,74.0,55.0,-100.00,NNW,344,8.0,17.0,52,0.00,,,0.00,,2013-08-02 18:32:00,
2013-08-02 13:43:00,74.0,55.0,-100.00,NNW,344,8.0,17.0,52,0.00,,,0.00,,2013-08-02 18:43:00,
2013-08-02 13:52:00,74.0,55.0,-100.00,NNW,344,8.0,17.0,52,0.00,,,0.00,,2013-08-02 18:52:00,
2013-08-02 14:02:00,74.0,55.0,-100.00,NNW,344,8.0,17.0,52,0.00,,,0.00,,2013-08-02 19:02:00,
2013-08-02 14:32:00,76.0,53.0,-100.00,NNW,331,8.0,14.0,45,0.00,,,0.00,,2013-08-02 19:32:00,
2013-08-02 14:43:00,76.0,53.0,-100.00,NNW,331,8.0,14.0,45,0.00,,,0.00,,2013-08-02 19:43:00,
2013-08-02 14:52:00,76.0,53.0,-100.00,NNW,331,8.0,14.0,45,0.00,,,0.00,,2013-08-02 19:52:00,
2013-08-02 15:02:00,76.0,53.0,-100.00,NNW,331,8.0,14.0,45,0.00,,,0.00,,2013-08-02 20:02:00,
2013-08-02 15:32:00,75.0,53.0,-100.00,North,350,7.0,15.0,46,0.00,,,0.00,,2013-08-02 20:32:00,
2013-08-02 15:43:00,75.0,53.0,-100.00,North,350,7.0,15.0,46,0.00,,,0.00,,2013-08-02 20:43:00,
2013-08-02 15:52:00,75.0,53.0,-100.00,North,350,7.0,15.0,46,0.00,,,0.00,,2013-08-02 20:52:00,
2013-08-02 16:03:00,75.0,53.0,-100.00,North,350,7.0,15.0,46,0.00,,,0.00,,2013-08-02 21:03:00,
2013-08-02 16:33:00,78.0,53.0,-100.00,NW,315,7.0,14.0,42,0.00,,,0.00,,2013-08-02 21:33:00,
2013-08-02 16:43:00,78.0,53.0,-100.00,NW,315,7.0,14.0,42,0.00,,,0.00,,2013-08-02 21:43:00,
2013-08-02 16:53:00,78.0,53.0,-100.00,NW,315,7.0,14.0,42,0.00,,,0.00,,2013-08-02 21:53:00,
2013-08-02 17:02:00,78.0,53.0,-100.00,NW,315,7.0,14.0,42,0.00,,,0.00,,2013-08-02 22:02:00,
2013-08-02 17:32:00,73.0,53.0,-100.00,NW,323,5.0,15.0,49,0.00,,,0.00,,2013-08-02 22:32:00,
2013-08-02 17:43:00,73.0,53.0,-100.00,NW,323,5.0,15.0,49,0.00,,,0.00,,2013-08-02 22:43:00,
2013-08-02 17:52:00,73.0,53.0,-100.00,NW,323,5.0,15.0,49,0.00,,,0.00,,2013-08-02 22:52:00,
2013-08-02 18:02:00,73.0,53.0,-100.00,NW,323,5.0,15.0,49,0.00,,,0.00,,2013-08-02 23:02:00,
2013-08-02 18:32:00,73.0,53.0,-100.00,NW,310,5.0,9.0,49,0.00,,,0.00,,2013-08-02 23:32:00,
2013-08-02 18:44:00,73.0,53.0,-100.00,NW,310,5.0,9.0,49,0.00,,,0.00,,2013-08-02 23:44:00,
2013-08-02 18:53:00,73.0,53.0,-100.00,NW,310,5.0,9.0,49,0.00,,,0.00,,2013-08-02 23:53:00,
2013-08-02 19:02:00,73.0,53.0,-100.00,NW,310,5.0,9.0,49,0.00,,,0.00,,2013-08-03 00:02:00,
2013-08-02 19:33:00,70.0,54.0,-100.00,NW,306,4.0,8.0,57,0.00,,,0.00,,2013-08-03 00:33:00,
2013-08-02 19:43:00,70.0,54.0,-100.00,NW,306,4.0,8.0,57,0.00,,,0.00,,2013-08-03 00:43:00,
2013-08-02 19:52:00,70.0,54.0,-100.00,NW,306,4.0,8.0,57,0.00,,,0.00,,2013-08-03 00:52:00,
2013-08-02 20:02:00,70.0,54.0,-100.00,NW,306,4.0,8.0,57,0.00,,,0.00,,2013-08-03 01:02:00,
2013-08-02 20:33:00,67.0,54.0,-100.00,NW,317,2.0,5.0,64,0.00,,,0.00,,2013-08-03 01:33:00,
2013-08-02 20:43:00,67.0,54.0,-100.00,NW,317,2.0,5.0,64,0.00,,,0.00,,2013-08-03 01:43:00,
2013-08-02 20:53:00,67.0,54.0,-100.00,NW,317,2.0,5.0,64,0.00,,,0.00,,2013-08-03 01:53:00,
2013-08-02 21:02:00,67.0,54.0,-100.00,NW,317,2.0,5.0,64,0.00,,,0.00,,2013-08-03 02:02:00,
2013-08-02 21:32:00,62.0,55.0,-100.00,NW,325,1.0,5.0,78,0.00,,,0.00,,2013-08-03 02:32:00,
2013-08-02 21:43:00,62.0,55.0,-100.00,NW,325,1.0,5.0,78,0.00,,,0.00,,2013-08-03 02:43:00,
2013-08-02 21:52:00,62.0,55.0,-100.00,NW,325,1.0,5.0,78,0.00,,,0.00,,2013-08-03 02:52:00,
2013-08-02 22:02:00,62.0,55.0,-100.00,NW,325,1.0,5.0,78,0.00,,,0.00,,2013-08-03 03:02:00,
2013-08-02 22:32:00,56.0,56.0,-100.00,NNE,13,0.0,4.0,100,0.00,,,0.00,,2013-08-03 03:32:00,
2013-08-02 22:43:00,56.0,56.0,-100.00,NNE,13,0.0,4.0,100,0.00,,,0.00,,2013-08-03 03:43:00,
2013-08-02 22:53:00,56.0,56.0,-100.00,NNE,13,0.0,4.0,100,0.00,,,0.00,,2013-08-03 03:53:00,
2013-08-02 23:02:00,56.0,56.0,-100.00,NNE,13,0.0,4.0,100,0.00,,,0.00,,2013-08-03 04:02:00,